This is the latest recevied weather packets stored in our database for station/object W5ALL-WX. If no packets are shown the sender has not sent any weather packets the latest 10 day(s).
| Time | Temp. | Humidity | Pressure | Rain* | Wind** | Luminosity | Snow |
|---|---|---|---|---|---|---|---|
| 1777980730 | 18.33° C | 36% | 1011.4 hPa | 0 mm | - | - | - |
| 1777980429 | 18.89° C | 35% | 1011.5 hPa | 0 mm | - | - | - |
| 1777980129 | 18.89° C | 33% | 1011.7 hPa | 0 mm | - | - | - |
| 1777979829 | 18.89° C | 33% | 1011.7 hPa | 0 mm | - | - | - |
| 1777979529 | 18.89° C | 34% | 1011.7 hPa | 0 mm | - | - | - |
| 1777979229 | 18.89° C | 34% | 1011.8 hPa | 0 mm | - | - | - |
| 1777978929 | 18.89° C | 34% | 1011.8 hPa | 0 mm | - | - | - |
| 1777978629 | 18.33° C | 34% | 1011.7 hPa | 0 mm | - | - | - |
| 1777978329 | 18.33° C | 35% | 1011.7 hPa | 0 mm | - | - | - |
| 1777978029 | 18.33° C | 36% | 1011.7 hPa | 0 mm | - | - | - |
| 1777977729 | 18.89° C | 35% | 1011.7 hPa | 0 mm | - | - | - |
| 1777977429 | 18.89° C | 35% | 1011.7 hPa | 0 mm | - | - | - |
| 1777977129 | 18.89° C | 34% | 1011.5 hPa | 0 mm | - | - | - |
| 1777976829 | 18.89° C | 33% | 1011.5 hPa | 0 mm | - | - | - |
| 1777976415 | 18.89° C | 34% | 1011.4 hPa | 0 mm | - | - | - |
| 1777976115 | 19.44° C | 33% | 1011.3 hPa | 0 mm | - | - | - |
| 1777975815 | 19.44° C | 32% | 1011.3 hPa | 0 mm | - | - | - |
| 1777975515 | 19.44° C | 31% | 1011.2 hPa | 0 mm | - | - | - |
| 1777975215 | 19.44° C | 31% | 1011.2 hPa | 0 mm | - | - | - |
| 1777974915 | 19.44° C | 31% | 1011.1 hPa | 0 mm | - | - | - |
| 1777974615 | 20° C | 31% | 1011 hPa | 0 mm | - | - | - |
| 1777974315 | 19.44° C | 31% | 1011.2 hPa | 0 mm | - | - | - |
| 1777974015 | 19.44° C | 30% | 1011.2 hPa | 0 mm | - | - | - |
| 1777973715 | 20° C | 30% | 1011.4 hPa | 0 mm | - | - | - |
| 1777973415 | 20° C | 29% | 1011.4 hPa | 0 mm | - | - | - |
* Rain latest hour (hover to see other rain measurements)
** Current wind speed in m/s (hover to see current wind gust speed)